Grand Marais, MN

7:41 PM CDT on July 21, 2017 (GMT -0500)
Grand Marais

Weather History for KGNA - January, 2014

Change the Weather History Date:

Friday, January 31, 2014

  Actual Average (KCKC) Record (KCKC)
Temperature  
Mean Temperature 0 °F -  
Max Temperature 12 °F 19 °F 39 °F (1999)
Min Temperature -13 °F 3 °F -20 °F (2014)
Degree Days  
Heating Degree Days 66    
Moisture  
Dew Point -10 °F    
Average Humidity 64    
Maximum Humidity 76    
Minimum Humidity 50    
Precipitation  
Precipitation 0.00 in - - ()
Sea Level Pressure  
Sea Level Pressure 30.05 in    
Wind  
Wind Speed 6 mph (West)    
Max Wind Speed 14 mph    
Max Gust Speed 22 mph    
Averages and records for this station are not official NWS values.
T = Trace of Precipitation, MM = Missing Value Source: NWS Daily Summary

Daily Weather History Graph

Daily Weather History Graph

Search for Another Location

Airport or City:

Trip Planner

Search our weather history database for the weather conditions in past years. The results will help you decide how hot, cold, wet, or windy it might be!

Date:

Astronomy

Jan. 31, 2014 Rise Set
Actual Time 7:29 AM CST 5:00 PM CST
Civil Twilight 6:56 AM CST 5:33 PM CST
Nautical Twilight 6:19 AM CST 6:11 PM CST
Astronomical Twilight 5:43 AM CST 6:47 PM CST
Moon 7:31 AM CST (1/31) 6:34 PM CST (1/31)
Length of Visible Light 10h 37m
Length of Day
9h 31m
New Moon, 1% of the Moon is Illuminated
Jan 31
New Moon
Feb 6
First Quarter
Feb 14
Full
Feb 22
Last Quarter
Mar 1
New

Hourly Weather History & Observations

Time (CST) Temp. Windchill Dew Point Humidity Pressure Visibility Wind Dir Wind Speed Gust Speed Precip Events Conditions
12:56 AM -4.0 °F -16.3 °F -11.9 °F 69% 29.97 in - Variable 5.8 mph 19.6 mph N/A   Unknown
1:56 AM -6.0 °F -14.7 °F -16.1 °F 62% 29.98 in - Variable 3.5 mph - N/A   Unknown
2:56 AM -6.0 °F -20.1 °F -14.1 °F 68% 30.02 in - West 6.9 mph - N/A   Unknown
3:56 AM -9.0 °F -20.4 °F -17.0 °F 68% 30.03 in - West 4.6 mph - N/A   Unknown
4:56 AM -9.0 °F -22.3 °F -17.0 °F 68% 30.06 in - West 5.8 mph - N/A   Unknown
5:56 AM -13.0 °F -25.1 °F -20.0 °F 71% 30.06 in - WNW 4.6 mph - N/A   Unknown
6:56 AM -13.0 °F -25.1 °F -20.9 °F 68% 30.09 in - NW 4.6 mph - N/A   Unknown
7:56 AM -13.0 °F -25.1 °F -20.9 °F 68% 30.12 in - WNW 4.6 mph - N/A   Unknown
8:56 AM -6.0 °F -14.7 °F -16.1 °F 62% 30.12 in - Variable 3.5 mph - N/A   Unknown
9:56 AM -2.0 °F -10.1 °F -14.1 °F 57% 30.12 in - WNW 3.5 mph - N/A   Unknown
10:56 AM -0.0 °F -9.9 °F -11.9 °F 57% 30.11 in - West 4.6 mph - N/A   Unknown
11:56 AM 3.0 °F -6.4 °F -11.9 °F 50% 30.08 in - Variable 4.6 mph - N/A   Unknown
12:56 PM 7.0 °F -3.3 °F -6.0 °F 55% 30.05 in - West 5.8 mph - N/A   Unknown
1:56 PM 7.0 °F -9.1 °F -0.0 °F 73% 30.05 in - WSW 12.7 mph 18.4 mph N/A   Unknown
2:56 PM 10.0 °F -3.7 °F 3.9 °F 76% 30.02 in - WSW 10.4 mph 19.6 mph N/A   Unknown
3:56 PM 10.9 °F -1.8 °F 3.9 °F 73% 30.01 in - West 9.2 mph 21.9 mph N/A   Unknown
4:56 PM 12.9 °F -2.2 °F 6.1 °F 74% 30.00 in - WSW 13.8 mph 20.7 mph N/A   Unknown
5:56 PM 8.1 °F -2.0 °F -2.0 °F 64% 30.01 in - West 5.8 mph - N/A   Unknown
6:56 PM 7.0 °F -4.5 °F -6.0 °F 55% 30.01 in - West 6.9 mph - N/A   Unknown
7:56 PM 5.0 °F -5.6 °F -7.1 °F 58% 30.04 in - WNW 5.8 mph - N/A   Unknown
8:56 PM 3.0 °F -8.0 °F -9.0 °F 57% 30.06 in - WNW 5.8 mph - N/A   Unknown
9:56 PM 3.9 °F -9.4 °F -8.0 °F 58% 30.05 in - West 8.1 mph - N/A   Unknown
10:56 PM 3.9 °F -8.2 °F -7.1 °F 60% 30.04 in - Variable 6.9 mph - N/A   Unknown
11:56 PM 1.9 °F -9.2 °F -8.0 °F 63% 30.05 in - WNW 5.8 mph - N/A   Unknown